RH
49 46 44 40 37 34 33 34 27 19 15 10 8 8 8 8 8 8 9 10 9 8 12 72 78 72 67 58 62 58 40 30 27 28 30 36 37 43 45 47 46 49 48 63 76
38 37 36 34 33 32 31 30 31 31 20 16 11 8 8 7 8 8 10 10 10 8 39 61 68 64 58 48 52 46 35 26 22 21 22 28 34 42 41 42 42 51 53 69 75
26 26 26 26 26 26 27 27 28 29 31 24 17 11 9 8 12 10 9 10 10 9 36 47 48 50 38 42 43 38 34 24 22 22 22 23 34 38 35 37 39 50 62 70 72
12 12 11 12 14 17 20 22 25 27 28 29 24 17 12 8 11 18 14 13 12 19 36 41 45 43 34 39 38 38 32 30 24 23 21 19 28 35 35 32 37 49 59 65 68
12 11 10 9 8 8 8 12 15 23 26 27 28 22 17 24 11 10 12 12 12 37 36 37 42 34 27 28 31 38 26 25 25 23 21 17 24 27 34 38 38 50 58 61 62
11 10 9 7 8 7 6 7 20 23 25 26 27 26 22 17 8 9 10 9 34 40 36 34 36 30 25 24 28 25 28 24 15 15 16 14 19 27 30 39 44 51 54 56 58
10 8 6 6 6 6 6 14 22 23 24 25 26 26 36 16 9 10 31 36 46 42 34 30 30 32 22 22 18 24 22 14 12 12 13 13 16 25 27 41 44 48 50 52 55
9 7 6 6 4 5 6 14 22 24 25 23 24 25 32 18 15 10 30 41 49 42 30 31 32 32 22 15 13 15 14 16 13 12 12 14 18 20 29 39 42 46 49 51 53
10 8 6 5 4 4 12 16 24 28 29 30 26 47 22 16 14 12 31 34 44 38 34 31 32 26 23 21 15 12 16 16 15 12 13 16 17 15 28 34 37 44 47 50 53
9 9 6 5 5 6 11 21 28 35 50 55 69 45 26 16 17 11 26 22 41 38 30 27 25 15 17 19 21 16 15 14 15 13 12 14 17 14 23 28 32 41 45 48 50
13 10 7 5 6 11 8 42 44 58 44 39 34 24 24 18 24 12 14 23 32 33 20 17 16 16 12 12 12 11 13 14 13 12 14 15 14 14 20 28 28 37 43 46 48
15 12 8 6 7 13 21 35 51 53 39 25 24 28 32 31 22 14 13 19 18 24 14 16 18 11 10 9 11 12 12 13 12 11 12 13 14 13 16 26 28 34 40 43 45
18 15 9 7 9 28 47 52 59 55 35 20 22 20 22 25 21 18 11 13 15 17 14 14 12 10 10 12 13 12 13 12 13 12 11 13 15 14 11 16 24 29 35 39 43
24 21 13 8 33 33 44 50 59 53 31 12 18 20 20 20 19 18 10 12 11 15 12 12 10 12 12 13 12 13 10 10 11 13 18 12 19 15 13 16 18 24 29 35 39
26 21 15 23 36 49 51 56 54 59 16 14 14 18 18 17 13 16 17 8 8 11 12 14 12 13 14 14 11 11 6 9 10 11 13 14 16 15 13 15 14 18 22 31 35
30 22 19 51 58 53 54 50 60 31 17 15 12 14 16 17 14 14 17 10 9 9 10 11 9 10 12 11 11 10 9 8 10 10 16 15 16 16 14 15 14 17 22 29 34
29 24 32 36 48 50 43 49 25 19 12 20 18 15 14 13 15 14 16 18 18 16 15 12 11 10 10 13 11 12 12 15 14 13 15 12 14 15 11 10 12 12 15 26 32
30 25 46 47 48 44 48 28 25 15 26 24 23 21 20 14 14 13 16 17 15 13 12 15 16 11 10 12 13 14 11 11 16 11 10 11 15 13 10 10 10 11 11 19 30
29 48 46 43 41 53 42 22 16 42 38 37 25 23 18 18 18 16 14 16 14 12 15 14 14 9 10 10 10 14 14 8 8 10 10 8 10 9 10 10 10 10 11 12 24
41 50 40 42 45 50 32 27 32 34 35 32 35 28 30 25 24 19 14 21 15 12 13 14 16 10 10 9 9 10 10 11 9 15 16 9 10 11 11 12 11 11 10 11 17
54 40 41 46 40 26 27 30 30 29 36 36 37 36 32 32 28 21 21 27 24 16 24 16 14 13 11 12 12 12 12 11 9 9 11 11 8 7 9 11 11 10 11 11 14
54 28 46 46 27 29 32 38 35 29 32 34 33 30 34 34 32 28 32 31 28 27 28 18 16 18 14 10 9 9 11 11 12 16 11 10 7 6 7 7 10 9 10 10 11
59 51 48 43 38 38 34 34 32 34 45 49 50 39 34 38 40 34 35 30 29 28 29 23 20 20 17 13 11 12 11 10 10 9 16 13 8 7 10 11 12 11 11 12 14
61 38 35 42 44 41 45 39 38 34 38 38 87 58 48 32 31 37 34 29 28 28 42 35 22 20 18 17 14 15 12 11 11 13 12 12 10 9 8 10 10 9 10 11 15
65 45 62 48 47 50 50 39 43 49 37 35 83 94 91 54 34 34 36 31 26 28 24 26 29 27 21 22 19 14 13 12 13 13 14 10 11 10 9 9 10 10 10 10 12
64 66 69 75 59 48 46 45 42 46 44 45 52 68 63 94 66 65 48 36 35 30 29 24 32 30 28 22 21 20 18 15 13 12 13 12 12 9 9 11 11 10 11 10 10
92 86 92 66 58 52 47 51 56 47 44 44 43 45 45 55 60 53 42 37 36 39 34 32 28 34 30 22 22 26 20 18 17 15 15 17 14 12 12 12 11 10 10 10 11
Wind_Speed
18 19 18 18 19 19 19 18 18 18 18 19 18 19 19 18 18 21 26 19 12 17 9 21 22 17 18 13 9 5 6 3 6 2 7 8 5 7 4 14 8 9 11 23 31
19 19 19 19 19 20 21 20 19 19 18 19 19 18 19 18 19 27 25 19 16 17 20 27 27 22 19 14 9 9 8 5 4 6 8 4 5 10 8 13 14 10 16 31 33
20 20 20 20 21 21 21 22 22 21 19 19 19 17 17 15 15 12 12 14 23 23 24 23 22 22 17 12 14 9 9 5 5 3 7 4 7 9 9 11 16 17 25 33 34
22 22 22 22 22 23 24 23 23 23 21 20 19 16 14 9 5 3 6 10 16 25 24 25 26 24 17 13 17 10 14 8 2 2 1 3 5 9 13 6 15 19 26 34 34
24 24 24 23 23 24 25 25 25 23 21 20 19 16 12 10 17 9 6 2 17 29 29 30 30 27 19 18 12 19 11 9 11 12 11 7 7 5 12 7 19 21 27 32 31
26 27 27 26 25 26 26 28 25 21 20 20 20 15 11 16 12 14 20 15 22 29 29 30 29 25 14 12 17 12 18 13 10 10 11 9 9 12 11 15 19 24 28 30 32
28 29 29 30 28 27 29 25 26 21 18 18 19 16 15 24 13 10 15 19 24 27 31 30 20 26 10 14 16 19 13 14 15 12 8 9 10 13 10 19 22 24 26 27 30
29 30 30 30 30 28 27 25 24 17 12 12 15 13 13 12 23 13 15 20 22 21 22 24 17 28 14 4 7 16 17 16 17 16 12 11 8 18 18 22 23 23 26 28 30
31 32 31 31 31 28 25 24 21 16 10 5 8 10 8 13 23 26 20 22 24 20 20 20 22 22 23 14 13 14 15 20 16 14 6 13 10 12 18 22 22 24 25 28 29
32 33 32 31 32 25 21 21 18 13 3 1 3 7 14 7 10 24 23 17 27 24 19 19 19 17 18 17 19 20 20 17 16 16 15 14 14 8 16 21 21 23 24 26 28
32 32 32 31 31 17 21 13 8 5 7 12 4 8 1 5 9 19 30 24 25 29 19 27 19 25 27 24 20 18 19 20 16 13 11 13 13 7 12 20 20 23 26 28 29
35 34 33 31 28 15 14 4 7 8 18 22 29 31 20 3 11 20 34 24 28 27 23 18 27 23 22 21 20 21 18 22 15 9 9 15 14 12 12 17 19 23 27 29 26
35 34 33 31 18 18 8 4 11 14 10 15 19 22 23 26 14 26 43 34 27 28 31 25 15 23 23 22 23 23 24 21 15 12 15 16 17 14 12 15 18 22 24 26 30
34 33 32 30 9 18 5 16 16 10 6 7 8 7 17 19 15 23 42 41 18 29 28 28 22 22 25 26 23 25 25 21 20 17 15 15 15 18 21 16 16 22 26 28 30
33 30 28 22 18 10 19 21 13 2 7 8 8 6 10 22 8 27 33 40 26 24 27 22 27 23 29 26 26 22 18 20 21 19 18 23 13 16 12 16 18 20 25 28 31
34 29 22 15 13 15 23 20 2 6 10 6 6 9 9 20 9 15 29 35 30 24 27 27 19 24 22 20 23 15 16 14 15 17 20 24 21 19 19 18 18 19 22 26 31
33 28 10 13 15 23 21 7 7 9 5 4 3 1 9 12 19 15 29 31 24 25 30 26 27 18 17 21 21 22 17 9 12 17 20 21 20 19 11 20 20 18 23 24 30
30 22 9 15 21 22 14 9 14 2 7 17 10 16 12 11 13 21 21 27 32 26 17 22 21 30 24 28 18 27 23 12 16 14 17 19 22 21 25 25 11 27 23 22 26
29 17 8 19 21 16 11 9 9 13 14 14 19 10 11 8 6 14 22 25 33 29 23 22 26 30 20 21 26 25 25 27 6 5 9 17 19 18 10 18 25 26 20 21 25
24 12 11 22 17 9 8 8 9 11 17 13 14 7 7 1 8 8 16 2 25 32 8 16 19 19 24 27 25 20 25 22 15 17 18 13 19 12 22 21 19 22 27 24 27
16 8 16 20 11 10 5 10 13 16 14 10 14 13 12 9 9 6 4 7 6 13 5 14 14 23 22 25 26 22 19 23 18 17 13 12 11 15 17 16 21 20 26 27 26
15 6 19 20 5 6 7 11 16 12 16 11 10 12 13 11 10 4 4 7 8 7 17 17 10 11 26 25 26 29 23 27 14 23 19 14 5 4 7 15 17 21 24 25 25
13 7 13 17 6 7 10 9 10 12 11 11 9 10 14 14 5 3 1 4 11 5 1 7 14 15 16 21 23 30 28 25 25 16 21 16 4 10 7 3 6 9 7 11 12
10 5 8 8 6 13 11 11 11 9 6 15 8 16 15 15 10 4 3 5 8 9 9 5 14 23 19 20 19 26 29 27 27 19 17 17 15 11 6 5 7 3 3 4 10
7 5 5 7 11 14 13 9 11 9 12 11 3 10 11 7 12 12 6 10 1 9 6 5 14 9 15 2 6 18 28 30 30 26 23 18 20 17 7 8 7 10 13 11 6
8 5 4 14 12 13 5 9 10 14 14 11 11 8 9 6 11 12 11 6 5 9 8 5 4 6 14 10 7 10 12 13 22 27 26 25 22 11 11 7 17 18 18 20 22
5 6 5 6 9 8 7 12 15 15 10 8 15 14 12 11 10 17 18 17 15 11 8 7 3 8 15 10 10 15 20 19 18 17 17 21 16 17 17 16 20 22 22 22 21
Wind_Direction
341 340 337 333 332 328 321 309 300 293 288 281 274 276 279 278 277 273 259 249 238 228 214 167 176 180 185 204 214 236 249 158 98 69 96 139 142 126 125 144 151 156 149 158 158
350 346 342 338 333 328 323 318 308 294 286 284 277 273 278 284 284 274 265 257 236 212 182 179 180 176 190 206 210 223 266 103 83 76 36 125 201 147 161 154 149 128 134 152 159
355 350 345 341 336 330 322 317 312 304 293 284 277 272 275 289 304 267 247 229 221 208 188 185 182 180 203 203 207 204 253 131 152 105 10 76 182 164 156 175 170 154 152 159 163
354 348 343 339 334 327 321 317 310 305 297 289 280 274 273 270 259 210 203 215 204 183 183 184 185 191 202 204 208 241 234 253 270 281 262 19 156 189 179 99 169 166 166 165 171
354 348 343 341 334 327 322 315 309 304 295 284 277 270 271 243 243 265 194 99 179 172 185 187 191 198 209 204 205 225 248 240 244 259 262 276 215 214 191 134 158 163 168 175 178
352 347 342 339 335 329 322 318 312 309 289 275 265 259 238 247 250 234 242 243 183 180 189 192 198 201 230 219 213 203 235 251 258 254 250 244 204 203 187 161 156 167 176 181 185
351 348 345 341 337 330 325 316 320 312 293 266 253 241 236 240 242 224 200 196 184 187 188 195 198 198 212 214 221 241 247 247 243 239 236 234 234 205 178 174 170 175 182 187 191
348 347 346 344 341 333 326 319 319 316 305 262 242 224 245 260 230 225 196 191 193 196 201 197 202 205 224 228 224 225 235 246 224 217 217 225 256 164 175 181 181 181 182 190 193
349 346 346 344 342 336 330 323 318 312 316 267 214 197 252 239 228 207 192 190 189 188 195 196 205 217 221 231 234 212 231 220 221 192 207 216 236 114 177 191 189 188 186 187 192
347 345 344 345 342 336 335 329 319 321 316 258 196 208 232 228 208 192 191 187 180 176 178 194 204 211 220 210 217 212 220 243 222 210 216 229 239 243 185 205 198 193 191 191 193
348 345 342 345 344 339 348 344 318 249 259 240 264 250 353 203 172 189 184 173 174 180 185 191 200 208 207 217 225 234 225 227 225 224 228 235 248 251 196 207 206 195 197 198 200
348 346 342 344 344 341 356 41 52 332 298 266 251 243 233 215 209 184 177 173 185 190 193 184 216 212 217 212 222 230 231 231 233 203 243 242 243 240 200 212 211 199 203 205 202
348 347 341 344 346 354 21 51 341 336 265 281 237 238 223 215 220 186 185 188 188 193 198 204 211 211 208 213 215 223 227 234 236 209 234 254 256 243 224 211 213 216 208 211 206
350 348 342 344 6 355 346 331 320 320 276 210 208 234 189 193 220 202 197 191 191 201 201 220 210 202 209 217 209 223 218 237 241 236 248 207 256 227 222 208 214 210 211 209 207
350 349 341 346 335 346 324 325 314 232 273 102 138 165 171 195 141 190 194 201 208 204 202 205 215 204 210 210 213 232 227 220 238 245 248 249 250 253 210 220 219 218 215 211 210
353 348 343 346 342 331 327 326 263 227 238 147 132 181 174 211 216 171 185 205 220 216 210 223 208 212 219 214 220 218 229 225 230 236 239 236 241 238 233 217 230 210 216 210 209
352 349 359 348 331 327 330 314 229 241 102 81 14 177 233 194 213 188 193 196 204 206 214 209 221 218 206 210 202 199 194 190 210 217 234 223 234 235 245 231 215 225 214 209 207
352 354 344 349 334 329 327 250 245 18 10 348 318 291 238 195 227 203 190 205 212 209 196 206 217 204 200 207 191 196 202 213 211 213 228 217 236 239 228 237 246 227 237 204 205
354 348 354 338 334 332 300 245 267 17 347 323 307 262 195 196 270 215 218 215 204 211 230 199 223 185 205 201 201 193 215 215 251 194 267 225 219 247 254 223 220 223 219 213 201
355 348 354 344 336 325 269 294 358 345 331 319 297 359 314 5 257 209 195 6 212 213 241 253 216 183 195 200 206 201 206 212 231 239 233 225 233 226 208 212 218 217 219 208 204
358 340 344 348 342 310 349 347 326 329 338 316 329 313 308 306 305 258 167 42 328 193 224 243 235 192 184 201 192 202 204 213 225 231 218 236 238 207 230 211 214 210 212 210 204
357 336 344 360 333 346 4 330 322 320 338 307 293 290 297 314 289 255 155 28 351 262 217 219 230 205 202 198 215 202 204 202 216 212 239 279 248 103 226 213 215 213 215 215 209
346 320 343 6 14 355 349 319 326 339 8 341 306 349 301 292 277 318 333 44 1 6 173 184 221 212 187 203 203 215 204 211 219 233 213 221 218 127 103 207 152 209 211 227 225
340 329 355 331 351 348 342 338 334 3 323 345 345 318 316 256 245 300 351 24 356 13 322 256 243 222 215 206 194 216 205 213 211 223 227 211 225 157 186 148 150 189 197 227 207
358 20 349 326 334 333 320 315 332 345 343 318 105 21 355 295 285 255 338 316 248 6 335 308 218 239 248 318 270 218 213 213 215 223 227 227 215 240 222 245 255 289 296 297 271
335 332 310 299 309 308 320 321 346 337 330 319 338 336 326 305 308 322 326 322 329 340 326 334 199 228 233 211 226 227 228 235 231 226 232 242 249 254 226 276 282 279 285 285 281
301 301 288 292 293 316 322 330 317 316 307 302 325 320 312 311 299 287 290 283 277 293 312 290 283 226 221 205 241 235 220 215 225 226 233 234 240 247 251 250 250 266 272 274 277